^^
Saratoga-Weather Station Historical Data
Daily Summary for January 24, 2020 Units:  Metric    English   Both
Daily Weekly Monthly Yearly Custom
  High: Low: Average:
Temperature: 11.1 °C 5.4 °C 8.6 °C
Dew Point: 9.8 °C 4.7 °C 7 °C
Humidity: 98% 81% 90%
Wind Speed: 19.5km/h 0km/h 4.8km/h
Wind Gust: 35.4km/h - -
Wind- - WSW
Pressure: 1024.7 hPa 1009.5 hPa -
Precipitation: 2.3 mm    
Historical Graphs
 
 
Tabular Data for January 24, 2020
Time Temperature Dew Point Pressure Wind Wind Speed Wind Gust Humidity Rainfall Rate (Hourly) solar
00:03 7.5 °C 6 °C 1024.7 hPa West 6.4 km/h 20.9 km/h 90% 0.2 mm 0 W/m2
00:08 7.3 °C 5.9 °C 1024.4 hPa NW 3.2 km/h 12.9 km/h 91% 0.2 mm 0 W/m2
00:13 7.1 °C 5.7 °C 1024.4 hPa NW 4.7 km/h 20.9 km/h 91% 0.2 mm 0 W/m2
00:18 7.1 °C 5.7 °C 1024.4 hPa West 4.7 km/h 8 km/h 91% 0.2 mm 0 W/m2
00:23 7.1 °C 5.7 °C 1024.4 hPa WNW 3.2 km/h 16.1 km/h 91% 0.2 mm 0 W/m2
00:28 6.9 °C 5.7 °C 1024.4 hPa WSW 3.2 km/h 4.8 km/h 92% 0.2 mm 0 W/m2
00:33 6.9 °C 5.7 °C 1024.4 hPa West 1.4 km/h 6.4 km/h 92% 0.2 mm 0 W/m2
00:38 6.8 °C 5.6 °C 1024.4 hPa West 3.2 km/h 3.2 km/h 92% 0.2 mm 0 W/m2
00:43 6.8 °C 5.6 °C 1024.7 hPa West 1.4 km/h 6.4 km/h 92% 0.2 mm 0 W/m2
00:48 6.8 °C 5.4 °C 1024.7 hPa West 3.2 km/h 6.4 km/h 91% 0.2 mm 0 W/m2
00:53 6.8 °C 5.3 °C 1024.7 hPa West 1.4 km/h 3.2 km/h 90% 0.2 mm 0 W/m2
00:58 6.9 °C 5.4 °C 1024.7 hPa West 4.7 km/h 4.8 km/h 90% 0.2 mm 0 W/m2
01:03 7 °C 5.3 °C 1024.7 hPa West 3.2 km/h 9.7 km/h 89% 0.0 mm 0 W/m2
01:08 7.2 °C 5.3 °C 1024.7 hPa WNW 6.4 km/h 8 km/h 88% 0.0 mm 0 W/m2
01:13 7.3 °C 5.1 °C 1024.7 hPa WNW 4.7 km/h 12.9 km/h 86% 0.0 mm 0 W/m2
01:18 7.6 °C 5.1 °C 1024.4 hPa WNW 4.7 km/h 12.9 km/h 84% 0.0 mm 0 W/m2
01:23 7.6 °C 5.1 °C 1024.4 hPa WNW 11.1 km/h 11.3 km/h 84% 0.0 mm 0 W/m2
01:28 7.7 °C 5 °C 1024.4 hPa WSW 3.2 km/h 6.4 km/h 83% 0.0 mm 0 W/m2
01:33 7.7 °C 5.2 °C 1024.4 hPa West 3.2 km/h 4.8 km/h 84% 0.0 mm 0 W/m2
01:38 7.6 °C 5.2 °C 1024.7 hPa West 3.2 km/h 6.4 km/h 85% 0.0 mm 0 W/m2
01:43 7.6 °C 5.2 °C 1024.7 hPa WSW 1.4 km/h 4.8 km/h 85% 0.0 mm 0 W/m2
01:48 7.6 °C 5.4 °C 1024.7 hPa Calm     86% 0.0 mm 0 W/m2
01:53 7.5 °C 5.5 °C 1024.7 hPa Calm   1.6 km/h 87% 0.0 mm 0 W/m2
01:58 7.4 °C 5.5 °C 1024.7 hPa Calm     88% 0.0 mm 0 W/m2
02:03 7.4 °C 5.7 °C 1024.7 hPa Calm     89% 0.0 mm 0 W/m2
02:08 7.3 °C 5.6 °C 1024.7 hPa Calm     89% 0.0 mm 0 W/m2
02:13 7.3 °C 5.8 °C 1024.7 hPa WNW 1.4 km/h 4.8 km/h 90% 0.0 mm 0 W/m2
02:18 7.3 °C 5.9 °C 1024.7 hPa West 1.4 km/h 4.8 km/h 91% 0.0 mm 0 W/m2
02:23 7.4 °C 6 °C 1024.7 hPa West 1.4 km/h 4.8 km/h 91% 0.0 mm 0 W/m2
02:28 7.4 °C 6 °C 1024.7 hPa WSW 1.4 km/h 3.2 km/h 91% 0.0 mm 0 W/m2
02:33 7.5 °C 6.3 °C 1024.7 hPa WNW 3.2 km/h 9.7 km/h 92% 0.0 mm 0 W/m2
02:38 7.5 °C 6.3 °C 1024.7 hPa West 3.2 km/h 4.8 km/h 92% 0.0 mm 0 W/m2
02:43 7.5 °C 6.3 °C 1024.7 hPa West 4.7 km/h 4.8 km/h 92% 0.0 mm 0 W/m2
02:48 7.5 °C 6.3 °C 1024.7 hPa WSW 3.2 km/h 4.8 km/h 92% 0.0 mm 0 W/m2
02:53 7.4 °C 6.3 °C 1024.4 hPa West 1.4 km/h 4.8 km/h 93% 0.0 mm 0 W/m2
02:58 7.4 °C 6.3 °C 1024.4 hPa NW 4.7 km/h 4.8 km/h 93% 0.0 mm 0 W/m2
03:03 7.4 °C 6.3 °C 1024.7 hPa WSW 4.7 km/h 4.8 km/h 93% 0.0 mm 0 W/m2
03:08 7.4 °C 6.3 °C 1024.7 hPa West 3.2 km/h 4.8 km/h 93% 0.0 mm 0 W/m2
03:13 7.4 °C 6.3 °C 1024.7 hPa WSW 3.2 km/h 8 km/h 93% 0.0 mm 0 W/m2
03:18 7.4 °C 6.3 °C 1024.7 hPa West 3.2 km/h 4.8 km/h 93% 0.0 mm 0 W/m2
03:23 7.4 °C 6.3 °C 1024.7 hPa SW 1.4 km/h 6.4 km/h 93% 0.0 mm 0 W/m2
03:28 7.4 °C 6.3 °C 1024.4 hPa West 1.4 km/h 4.8 km/h 93% 0.0 mm 0 W/m2
03:33 7.4 °C 6.3 °C 1024.4 hPa West 1.4 km/h 6.4 km/h 93% 0.0 mm 0 W/m2
03:38 7.3 °C 6.2 °C 1024.7 hPa West 4.7 km/h 4.8 km/h 93% 0.0 mm 0 W/m2
03:43 7.3 °C 6.2 °C 1024.7 hPa West 6.4 km/h 8 km/h 93% 0.0 mm 0 W/m2
03:48 7.2 °C 6 °C 1024.4 hPa West 4.7 km/h 6.4 km/h 92% 0.0 mm 0 W/m2
03:53 7.1 °C 5.6 °C 1024.4 hPa West 1.4 km/h 14.5 km/h 90% 0.0 mm 0 W/m2
03:58 7 °C 5.5 °C 1024.4 hPa West 3.2 km/h 3.2 km/h 90% 0.2 mm 0 W/m2
04:03 6.8 °C 5 °C 1024.4 hPa WSW 3.2 km/h 9.7 km/h 88% 0.2 mm 0 W/m2
04:08 6.8 °C 5 °C 1024.4 hPa SSW 6.4 km/h 6.4 km/h 88% 0.2 mm 0 W/m2
04:13 6.7 °C 4.9 °C 1024.0 hPa WNW 4.7 km/h 4.8 km/h 88% 0.2 mm 0 W/m2
04:18 6.6 °C 4.8 °C 1024.0 hPa West 4.7 km/h 6.4 km/h 88% 0.2 mm 0 W/m2
04:24 6.5 °C 4.7 °C 1024.4 hPa West 1.4 km/h 3.2 km/h 88% 0.2 mm 0 W/m2
04:29 6.5 °C 4.7 °C 1024.4 hPa West 3.2 km/h 6.4 km/h 88% 0.2 mm 0 W/m2
04:34 6.5 °C 4.7 °C 1024.4 hPa WSW 1.4 km/h 3.2 km/h 88% 0.2 mm 0 W/m2
04:39 6.5 °C 4.7 °C 1024.4 hPa WSW 1.4 km/h 4.8 km/h 88% 0.2 mm 0 W/m2
04:44 6.5 °C 4.8 °C 1024.4 hPa WSW 1.4 km/h 4.8 km/h 89% 0.2 mm 0 W/m2
04:49 6.5 °C 4.8 °C 1024.4 hPa Calm   3.2 km/h 89% 0.2 mm 0 W/m2
04:54 6.4 °C 4.9 °C 1024.4 hPa Calm   4.8 km/h 90% 0.2 mm 0 W/m2
04:59 6.4 °C 4.9 °C 1024.4 hPa SW 1.4 km/h 1.6 km/h 90% 0.0 mm 0 W/m2
05:04 6.3 °C 4.9 °C 1024.4 hPa Calm   1.6 km/h 91% 0.0 mm 0 W/m2
05:09 6.3 °C 4.9 °C 1024.4 hPa SW 1.4 km/h 1.6 km/h 91% 0.0 mm 0 W/m2
05:14 6.2 °C 4.8 °C 1024.4 hPa Calm     91% 0.0 mm 0 W/m2
05:19 6.2 °C 5 °C 1024.4 hPa Calm   3.2 km/h 92% 0.0 mm 0 W/m2
05:24 6.2 °C 5 °C 1024.4 hPa Calm     92% 0.0 mm 0 W/m2
05:29 6.1 °C 4.9 °C 1024.4 hPa South 1.4 km/h 1.6 km/h 92% 0.0 mm 0 W/m2
05:34 6.1 °C 5.1 °C 1024.4 hPa Calm     93% 0.0 mm 0 W/m2
05:39 6 °C 5 °C 1024.0 hPa Calm   1.6 km/h 93% 0.0 mm 0 W/m2
05:44 6 °C 5 °C 1024.0 hPa SW 3.2 km/h 3.2 km/h 93% 0.0 mm 0 W/m2
05:50 5.9 °C 4.9 °C 1024.0 hPa Calm   1.6 km/h 93% 0.0 mm 0 W/m2
05:55 5.9 °C 4.9 °C 1024.0 hPa Calm   1.6 km/h 93% 0.0 mm 0 W/m2
06:00 5.9 °C 5 °C 1024.0 hPa Calm     94% 0.0 mm 0 W/m2
06:05 5.9 °C 5 °C 1024.0 hPa Calm     94% 0.2 mm 0 W/m2
06:10 5.9 °C 5 °C 1023.7 hPa East 1.4 km/h 3.2 km/h 94% 0.2 mm 0 W/m2
06:15 5.8 °C 4.9 °C 1023.7 hPa East 1.4 km/h 4.8 km/h 94% 0.2 mm 0 W/m2
06:20 5.8 °C 4.9 °C 1023.7 hPa East 3.2 km/h 3.2 km/h 94% 0.5 mm 0 W/m2
06:25 5.8 °C 4.9 °C 1023.7 hPa East 1.4 km/h 3.2 km/h 94% 0.5 mm 0 W/m2
06:30 5.8 °C 5.1 °C 1023.7 hPa Calm     95% 0.5 mm 0 W/m2
06:35 5.8 °C 5.1 °C 1023.4 hPa East 3.2 km/h 4.8 km/h 95% 0.5 mm 0 W/m2
06:40 5.7 °C 5 °C 1023.4 hPa Calm   3.2 km/h 95% 0.5 mm 0 W/m2
06:45 5.7 °C 5 °C 1023.7 hPa ESE 1.4 km/h 3.2 km/h 95% 0.5 mm 0 W/m2
06:50 5.7 °C 5 °C 1023.4 hPa ESE 1.4 km/h 1.6 km/h 95% 0.5 mm 0 W/m2
06:55 5.6 °C 4.9 °C 1023.4 hPa ESE 1.4 km/h 3.2 km/h 95% 0.5 mm 0 W/m2
07:00 5.6 °C 4.9 °C 1023.4 hPa Calm   1.6 km/h 95% 0.5 mm 0 W/m2
07:05 5.6 °C 4.9 °C 1023.0 hPa Calm   1.6 km/h 95% 0.5 mm 0 W/m2
07:10 5.5 °C 4.8 °C 1023.0 hPa ESE 4.7 km/h 4.8 km/h 95% 0.5 mm 0 W/m2
07:15 5.5 °C 4.8 °C 1023.0 hPa ESE 3.2 km/h 4.8 km/h 95% 0.8 mm 0 W/m2
07:20 5.5 °C 4.8 °C 1023.0 hPa Calm   9.7 km/h 95% 0.5 mm 0 W/m2
07:25 5.4 °C 4.8 °C 1022.7 hPa East 3.2 km/h 4.8 km/h 96% 0.5 mm 0 W/m2
07:30 5.4 °C 4.7 °C 1022.7 hPa East 3.2 km/h 4.8 km/h 95% 0.8 mm 0 W/m2
07:35 5.4 °C 4.8 °C 1022.7 hPa SE 3.2 km/h 4.8 km/h 96% 0.8 mm 0 W/m2
07:40 5.4 °C 4.8 °C 1022.7 hPa East 3.2 km/h 4.8 km/h 96% 0.8 mm 0 W/m2
07:45 5.4 °C 4.8 °C 1022.7 hPa East 1.4 km/h 4.8 km/h 96% 0.8 mm 0 W/m2
07:50 5.4 °C 4.8 °C 1022.7 hPa East 3.2 km/h 4.8 km/h 96% 0.8 mm 5 W/m2
07:55 5.4 °C 4.8 °C 1022.4 hPa ESE 1.4 km/h 3.2 km/h 96% 0.8 mm 7 W/m2
08:00 5.4 °C 4.8 °C 1022.4 hPa East 3.2 km/h 4.8 km/h 96% 0.8 mm 7 W/m2
08:05 5.4 °C 4.8 °C 1022.4 hPa ESE 3.2 km/h 3.2 km/h 96% 0.5 mm 7 W/m2
08:10 5.4 °C 4.8 °C 1022.4 hPa East 6.4 km/h 8 km/h 96% 0.5 mm 9 W/m2
08:15 5.4 °C 4.8 °C 1022.4 hPa ESE 3.2 km/h 4.8 km/h 96% 0.5 mm 12 W/m2
08:20 5.4 °C 4.8 °C 1022.4 hPa ENE 1.4 km/h 1.6 km/h 96% 0.5 mm 19 W/m2
08:26 5.4 °C 4.8 °C 1022.4 hPa East 3.2 km/h 4.8 km/h 96% 0.5 mm 19 W/m2
08:31 5.5 °C 4.9 °C 1022.0 hPa ENE 3.2 km/h 4.8 km/h 96% 0.2 mm 23 W/m2
08:36 5.5 °C 4.9 °C 1022.0 hPa ESE 3.2 km/h 4.8 km/h 96% 0.2 mm 21 W/m2
08:41 5.6 °C 5 °C 1022.0 hPa East 3.2 km/h 6.4 km/h 96% 0.2 mm 19 W/m2
08:46 5.6 °C 5 °C 1021.7 hPa ENE 1.4 km/h 3.2 km/h 96% 0.2 mm 25 W/m2
08:51 5.6 °C 5 °C 1021.7 hPa Calm   4.8 km/h 96% 0.2 mm 25 W/m2
08:56 5.7 °C 5.1 °C 1021.7 hPa East 4.7 km/h 9.7 km/h 96% 0.0 mm 23 W/m2
09:01 5.7 °C 5.1 °C 1021.7 hPa ESE 3.2 km/h 6.4 km/h 96% 0.0 mm 19 W/m2
09:06 5.7 °C 5.1 °C 1021.3 hPa East 3.2 km/h 11.3 km/h 96% 0.0 mm 26 W/m2
09:11 5.7 °C 5.1 °C 1021.3 hPa East 3.2 km/h 8 km/h 96% 0.0 mm 30 W/m2
09:16 5.8 °C 5.4 °C 1021.3 hPa ENE 3.2 km/h 4.8 km/h 97% 0.0 mm 30 W/m2
09:21 5.8 °C 5.2 °C 1021.3 hPa Calm   6.4 km/h 96% 0.0 mm 28 W/m2
09:26 5.9 °C 5.3 °C 1021.3 hPa East 3.2 km/h 4.8 km/h 96% 0.2 mm 30 W/m2
09:31 5.9 °C 5.5 °C 1021.3 hPa East 4.7 km/h 4.8 km/h 97% 0.2 mm 33 W/m2
09:36 6 °C 5.6 °C 1021.3 hPa ESE 1.4 km/h 3.2 km/h 97% 0.2 mm 39 W/m2
09:41 6.1 °C 5.7 °C 1021.3 hPa Calm   4.8 km/h 97% 0.2 mm 46 W/m2
09:46 6.1 °C 5.7 °C 1021.0 hPa ESE 3.2 km/h 3.2 km/h 97% 0.5 mm 42 W/m2
09:51 6.1 °C 5.7 °C 1021.0 hPa Calm   1.6 km/h 97% 0.5 mm 49 W/m2
09:56 6.2 °C 5.8 °C 1021.0 hPa East 1.4 km/h 4.8 km/h 97% 0.5 mm 49 W/m2
10:01 6.3 °C 5.9 °C 1020.7 hPa Calm   3.2 km/h 97% 0.5 mm 44 W/m2
10:06 6.3 °C 5.9 °C 1020.7 hPa ESE 1.4 km/h 4.8 km/h 97% 0.5 mm 51 W/m2
10:11 6.4 °C 6 °C 1020.7 hPa Calm   6.4 km/h 97% 0.5 mm 58 W/m2
10:16 6.5 °C 6.1 °C 1020.3 hPa East 3.2 km/h 4.8 km/h 97% 0.5 mm 93 W/m2
10:21 6.6 °C 6.2 °C 1020.3 hPa ESE 6.4 km/h 6.4 km/h 97% 0.5 mm 113 W/m2
10:26 6.7 °C 6.3 °C 1020.0 hPa ESE 1.4 km/h 6.4 km/h 97% 0.2 mm 95 W/m2
10:31 6.8 °C 6.4 °C 1020.0 hPa ESE 1.4 km/h 3.2 km/h 97% 0.2 mm 79 W/m2
10:36 7 °C 6.6 °C 1020.0 hPa ESE 1.4 km/h 6.4 km/h 97% 0.2 mm 97 W/m2
10:41 7.2 °C 6.8 °C 1019.6 hPa Calm   4.8 km/h 97% 0.2 mm 70 W/m2
10:46 7.3 °C 6.9 °C 1019.6 hPa East 4.7 km/h 6.4 km/h 97% 0.0 mm 113 W/m2
10:51 7.4 °C 7 °C 1019.6 hPa ESE 3.2 km/h 4.8 km/h 97% 0.0 mm 76 W/m2
10:56 7.6 °C 7.2 °C 1019.3 hPa Calm   3.2 km/h 97% 0.0 mm 84 W/m2
11:01 7.9 °C 7.5 °C 1019.3 hPa NNW 1.4 km/h 4.8 km/h 97% 0.0 mm 79 W/m2
11:06 8.4 °C 8.1 °C 1019.3 hPa NW 6.4 km/h 11.3 km/h 98% 0.0 mm 79 W/m2
11:11 8.8 °C 8.5 °C 1019.0 hPa NW 4.7 km/h 4.8 km/h 98% 0.0 mm 91 W/m2
11:16 9.1 °C 8.8 °C 1019.0 hPa NNW 3.2 km/h 8 km/h 98% 0.0 mm 86 W/m2
11:21 9.2 °C 8.9 °C 1019.0 hPa West 13 km/h 12.9 km/h 98% 0.0 mm 90 W/m2
11:26 9.3 °C 9 °C 1019.0 hPa NNW 4.7 km/h 11.3 km/h 98% 0.0 mm 88 W/m2
11:31 9.4 °C 8.9 °C 1018.6 hPa West 6.4 km/h 11.3 km/h 97% 0.0 mm 98 W/m2
11:36 9.5 °C 9.2 °C 1018.6 hPa NNW 3.2 km/h 6.4 km/h 98% 0.0 mm 84 W/m2
11:41 9.6 °C 9.1 °C 1018.6 hPa WSW 7.9 km/h 8 km/h 97% 0.0 mm 79 W/m2
11:46 9.6 °C 9.1 °C 1018.6 hPa West 3.2 km/h 9.7 km/h 97% 0.0 mm 74 W/m2
11:51 9.7 °C 9.2 °C 1018.6 hPa NE 3.2 km/h 6.4 km/h 97% 0.0 mm 70 W/m2
11:56 9.7 °C 9.2 °C 1018.3 hPa SW 6.4 km/h 14.5 km/h 97% 0.0 mm 60 W/m2
12:02 9.8 °C 9.3 °C 1018.3 hPa WNW 16.3 km/h 22.5 km/h 97% 0.0 mm 67 W/m2
12:07 9.8 °C 9.3 °C 1018.3 hPa West 13 km/h 19.3 km/h 97% 0.0 mm 72 W/m2
12:12 9.8 °C 9.3 °C 1018.0 hPa SSW 1.4 km/h 11.3 km/h 97% 0.0 mm 95 W/m2
12:17 9.8 °C 9.3 °C 1018.0 hPa WNW 11.1 km/h 16.1 km/h 97% 0.0 mm 104 W/m2
12:22 9.9 °C 9.3 °C 1017.6 hPa NNW 7.9 km/h 12.9 km/h 96% 0.0 mm 102 W/m2
12:27 9.9 °C 9.4 °C 1017.6 hPa NW 16.3 km/h 16.1 km/h 97% 0.0 mm 91 W/m2
12:32 10 °C 9.4 °C 1017.6 hPa West 3.2 km/h 9.7 km/h 96% 0.0 mm 97 W/m2
12:37 10 °C 9.4 °C 1017.6 hPa WSW 14.3 km/h 30.6 km/h 96% 0.0 mm 104 W/m2
12:42 10.1 °C 9.5 °C 1017.3 hPa SW 4.7 km/h 16.1 km/h 96% 0.0 mm 118 W/m2
12:47 10.1 °C 9.5 °C 1017.3 hPa WNW 1.4 km/h 29 km/h 96% 0.0 mm 121 W/m2
12:52 10.2 °C 9.6 °C 1016.9 hPa NW 6.4 km/h 11.3 km/h 96% 0.0 mm 125 W/m2
12:57 10.2 °C 9.6 °C 1016.9 hPa NW 6.4 km/h 8 km/h 96% 0.0 mm 167 W/m2
13:02 10.2 °C 9.6 °C 1016.6 hPa SSW 11.1 km/h 11.3 km/h 96% 0.0 mm 162 W/m2
13:07 10.3 °C 9.5 °C 1016.6 hPa NW 1.4 km/h 6.4 km/h 95% 0.0 mm 146 W/m2
13:12 10.3 °C 9.5 °C 1016.6 hPa SE 3.2 km/h 14.5 km/h 95% 0.0 mm 118 W/m2
13:17 10.4 °C 9.6 °C 1016.6 hPa NW 6.4 km/h 11.3 km/h 95% 0.0 mm 116 W/m2
13:22 10.4 °C 9.6 °C 1016.6 hPa NW 7.9 km/h 17.7 km/h 95% 0.0 mm 109 W/m2
13:27 10.5 °C 9.6 °C 1016.3 hPa NW 1.4 km/h 12.9 km/h 94% 0.0 mm 109 W/m2
13:32 10.5 °C 9.6 °C 1016.3 hPa North 6.4 km/h 17.7 km/h 94% 0.0 mm 107 W/m2
13:37 10.6 °C 9.7 °C 1016.3 hPa Calm   8 km/h 94% 0.0 mm 84 W/m2
13:42 10.6 °C 9.7 °C 1015.9 hPa NNW 3.2 km/h 14.5 km/h 94% 0.0 mm 86 W/m2
13:47 10.6 °C 9.7 °C 1015.9 hPa North 6.4 km/h 6.4 km/h 94% 0.0 mm 74 W/m2
13:53 10.7 °C 9.8 °C 1015.9 hPa WSW 6.4 km/h 12.9 km/h 94% 0.0 mm 72 W/m2
13:58 10.7 °C 9.6 °C 1015.9 hPa WNW 3.2 km/h 16.1 km/h 93% 0.2 mm 60 W/m2
14:03 10.7 °C 9.6 °C 1015.6 hPa West 14.3 km/h 14.5 km/h 93% 0.2 mm 58 W/m2
14:08 10.7 °C 9.6 °C 1015.2 hPa NW 3.2 km/h 9.7 km/h 93% 0.2 mm 60 W/m2
14:13 10.8 °C 9.7 °C 1015.2 hPa NNW 3.2 km/h 6.4 km/h 93% 0.2 mm 88 W/m2
14:18 10.8 °C 9.7 °C 1015.2 hPa NW 7.9 km/h 17.7 km/h 93% 0.2 mm 90 W/m2
14:23 10.8 °C 9.7 °C 1015.2 hPa NNW 1.4 km/h 4.8 km/h 93% 0.2 mm 93 W/m2
14:28 10.9 °C 9.7 °C 1014.9 hPa West 4.7 km/h 17.7 km/h 92% 0.2 mm 79 W/m2
14:33 10.9 °C 9.7 °C 1014.6 hPa Calm   6.4 km/h 92% 0.2 mm 67 W/m2
14:38 10.9 °C 9.7 °C 1014.6 hPa ESE 4.7 km/h 16.1 km/h 92% 0.2 mm 74 W/m2
14:43 10.9 °C 9.7 °C 1014.6 hPa WNW 4.7 km/h 16.1 km/h 92% 0.2 mm 98 W/m2
14:48 10.8 °C 9.6 °C 1014.2 hPa NW 11.1 km/h 17.7 km/h 92% 0.2 mm 83 W/m2
14:53 10.8 °C 9.6 °C 1014.6 hPa WNW 11.1 km/h 12.9 km/h 92% 0.2 mm 81 W/m2
14:58 10.8 °C 9.6 °C 1014.6 hPa NW 14.3 km/h 17.7 km/h 92% 0.0 mm 88 W/m2
15:03 10.7 °C 9.5 °C 1014.6 hPa WSW 19.5 km/h 27.4 km/h 92% 0.0 mm 81 W/m2
15:08 10.7 °C 9.3 °C 1014.6 hPa WNW 11.1 km/h 14.5 km/h 91% 0.0 mm 51 W/m2
15:13 10.7 °C 9.3 °C 1014.2 hPa Calm   19.3 km/h 91% 0.0 mm 105 W/m2
15:18 10.7 °C 9.1 °C 1014.2 hPa North 3.2 km/h 20.9 km/h 90% 0.0 mm 70 W/m2
15:23 10.7 °C 9.1 °C 1013.9 hPa NW 13 km/h 14.5 km/h 90% 0.0 mm 90 W/m2
15:28 10.7 °C 9.1 °C 1013.9 hPa NW 4.7 km/h 14.5 km/h 90% 0.0 mm 74 W/m2
15:33 10.7 °C 9.1 °C 1013.9 hPa WNW 11.1 km/h 12.9 km/h 90% 0.0 mm 88 W/m2
15:38 10.7 °C 9.1 °C 1013.9 hPa WNW 11.1 km/h 14.5 km/h 90% 0.0 mm 70 W/m2
15:43 10.7 °C 9.1 °C 1013.9 hPa WSW 13 km/h 19.3 km/h 90% 0.0 mm 67 W/m2
15:48 10.7 °C 9 °C 1013.9 hPa WNW 7.9 km/h 16.1 km/h 89% 0.0 mm 63 W/m2
15:53 10.8 °C 9.1 °C 1013.9 hPa WSW 4.7 km/h 12.9 km/h 89% 0.0 mm 49 W/m2
15:58 10.8 °C 9.1 °C 1013.5 hPa West 13 km/h 22.5 km/h 89% 0.0 mm 49 W/m2
16:03 10.8 °C 8.9 °C 1013.9 hPa NW 4.7 km/h 8 km/h 88% 0.0 mm 40 W/m2
16:08 10.8 °C 8.9 °C 1013.5 hPa West 9.7 km/h 22.5 km/h 88% 0.0 mm 44 W/m2
16:13 10.8 °C 8.9 °C 1013.5 hPa West 4.7 km/h 12.9 km/h 88% 0.0 mm 37 W/m2
16:18 10.8 °C 8.9 °C 1013.5 hPa WNW 4.7 km/h 14.5 km/h 88% 0.0 mm 33 W/m2
16:23 10.8 °C 8.9 °C 1013.5 hPa West 9.7 km/h 14.5 km/h 88% 0.0 mm 35 W/m2
16:28 10.8 °C 8.9 °C 1013.2 hPa WSW 6.4 km/h 12.9 km/h 88% 0.0 mm 37 W/m2
16:33 10.8 °C 8.7 °C 1013.2 hPa North 6.4 km/h 16.1 km/h 87% 0.0 mm 44 W/m2
16:38 10.8 °C 8.7 °C 1012.9 hPa West 1.4 km/h 6.4 km/h 87% 0.0 mm 33 W/m2
16:43 10.8 °C 8.7 °C 1012.9 hPa NNW 7.9 km/h 22.5 km/h 87% 0.0 mm 37 W/m2
16:48 10.8 °C 8.7 °C 1012.5 hPa West 3.2 km/h 11.3 km/h 87% 0.0 mm 44 W/m2
16:53 10.9 °C 8.6 °C 1012.5 hPa WNW 3.2 km/h 22.5 km/h 86% 0.0 mm 40 W/m2
16:58 10.9 °C 8.6 °C 1012.2 hPa North 3.2 km/h 6.4 km/h 86% 0.0 mm 40 W/m2
17:03 10.9 °C 8.6 °C 1012.2 hPa West 4.7 km/h 16.1 km/h 86% 0.0 mm 40 W/m2
17:08 10.9 °C 8.6 °C 1012.2 hPa NNW 9.7 km/h 12.9 km/h 86% 0.0 mm 35 W/m2
17:13 11 °C 8.7 °C 1011.9 hPa NNE 3.2 km/h 9.7 km/h 86% 0.0 mm 28 W/m2
17:18 11.1 °C 8.7 °C 1012.2 hPa West 6.4 km/h 11.3 km/h 85% 0.0 mm 26 W/m2
17:23 11.1 °C 8.7 °C 1012.2 hPa NW 4.7 km/h 20.9 km/h 85% 0.0 mm 16 W/m2
17:28 11.1 °C 8.7 °C 1012.2 hPa West 6.4 km/h 14.5 km/h 85% 0.0 mm 9 W/m2
17:33 11.1 °C 8.7 °C 1012.2 hPa West 4.7 km/h 6.4 km/h 85% 0.0 mm 7 W/m2
17:38 11.1 °C 8.7 °C 1012.2 hPa NW 3.2 km/h 4.8 km/h 85% 0.0 mm 7 W/m2
17:43 11.1 °C 8.7 °C 1012.2 hPa Calm   4.8 km/h 85% 0.0 mm 5 W/m2
17:48 11 °C 8.7 °C 1011.9 hPa West 11.1 km/h 11.3 km/h 86% 0.0 mm 0 W/m2
17:53 11 °C 8.7 °C 1012.2 hPa WNW 3.2 km/h 14.5 km/h 86% 0.0 mm 0 W/m2
17:58 10.9 °C 8.6 °C 1012.2 hPa NNW 3.2 km/h 6.4 km/h 86% 0.0 mm 0 W/m2
18:03 10.9 °C 8.6 °C 1012.2 hPa WNW 3.2 km/h 3.2 km/h 86% 0.0 mm 0 W/m2
18:08 10.9 °C 8.5 °C 1012.2 hPa West 14.3 km/h 19.3 km/h 85% 0.0 mm 0 W/m2
18:13 10.9 °C 8.3 °C 1012.2 hPa NW 4.7 km/h 20.9 km/h 84% 0.0 mm 0 W/m2
18:18 10.8 °C 8.2 °C 1011.9 hPa WNW 3.2 km/h 12.9 km/h 84% 0.0 mm 0 W/m2
18:23 10.8 °C 8 °C 1011.9 hPa West 14.3 km/h 17.7 km/h 83% 0.0 mm 0 W/m2
18:28 10.8 °C 7.9 °C 1012.2 hPa WNW 9.7 km/h 17.7 km/h 82% 0.0 mm 0 W/m2
18:33 10.8 °C 7.9 °C 1011.9 hPa West 11.1 km/h 29 km/h 82% 0.0 mm 0 W/m2
18:38 10.7 °C 7.6 °C 1011.9 hPa WSW 9.7 km/h 20.9 km/h 81% 0.0 mm 0 W/m2
18:43 10.7 °C 7.6 °C 1012.2 hPa North 7.9 km/h 30.6 km/h 81% 0.0 mm 0 W/m2
18:48 10.7 °C 7.6 °C 1011.9 hPa West 14.3 km/h 19.3 km/h 81% 0.0 mm 0 W/m2
18:53 10.6 °C 7.5 °C 1012.2 hPa NW 13 km/h 30.6 km/h 81% 0.0 mm 0 W/m2
18:58 10.6 °C 7.5 °C 1012.2 hPa WSW 7.9 km/h 22.5 km/h 81% 0.0 mm 0 W/m2
19:03 10.5 °C 7.4 °C 1012.2 hPa WNW 4.7 km/h 24.1 km/h 81% 0.0 mm 0 W/m2
19:08 10.5 °C 7.4 °C 1012.2 hPa West 6.4 km/h 32.2 km/h 81% 0.0 mm 0 W/m2
19:13 10.4 °C 7.3 °C 1012.2 hPa WSW 13 km/h 17.7 km/h 81% 0.0 mm 0 W/m2
19:18 10.4 °C 7.3 °C 1012.2 hPa NW 6.4 km/h 25.7 km/h 81% 0.0 mm 0 W/m2
19:23 10.4 °C 7.3 °C 1011.9 hPa NW 6.4 km/h 16.1 km/h 81% 0.0 mm 0 W/m2
19:28 10.4 °C 7.3 °C 1012.2 hPa NW 6.4 km/h 25.7 km/h 81% 0.0 mm 0 W/m2
19:33 10.4 °C 7.3 °C 1011.9 hPa WSW 13 km/h 22.5 km/h 81% 0.0 mm 0 W/m2
19:38 10.4 °C 7.3 °C 1011.9 hPa WNW 14.3 km/h 20.9 km/h 81% 0.0 mm 0 W/m2
19:43 10.4 °C 7.3 °C 1011.9 hPa WNW 7.9 km/h 16.1 km/h 81% 0.0 mm 0 W/m2
19:48 10.4 °C 7.3 °C 1011.9 hPa WNW 4.7 km/h 8 km/h 81% 0.0 mm 0 W/m2
19:53 10.5 °C 7.4 °C 1011.9 hPa NNW 7.9 km/h 16.1 km/h 81% 0.0 mm 0 W/m2
19:58 10.4 °C 7.3 °C 1011.9 hPa West 6.4 km/h 11.3 km/h 81% 0.0 mm 0 W/m2
20:03 10.4 °C 7.5 °C 1011.9 hPa West 13 km/h 17.7 km/h 82% 0.0 mm 0 W/m2
20:08 10.4 °C 7.5 °C 1011.9 hPa West 4.7 km/h 12.9 km/h 82% 0.0 mm 0 W/m2
20:13 10.4 °C 7.5 °C 1011.9 hPa WSW 3.2 km/h 12.9 km/h 82% 0.0 mm 0 W/m2
20:18 10.4 °C 7.5 °C 1011.9 hPa WSW 11.1 km/h 20.9 km/h 82% 0.0 mm 0 W/m2
20:23 10.4 °C 7.5 °C 1011.5 hPa NW 6.4 km/h 16.1 km/h 82% 0.0 mm 0 W/m2
20:28 10.4 °C 7.5 °C 1011.5 hPa North 4.7 km/h 20.9 km/h 82% 0.0 mm 0 W/m2
20:33 10.4 °C 7.5 °C 1011.5 hPa WNW 4.7 km/h 12.9 km/h 82% 0.0 mm 0 W/m2
20:38 10.4 °C 7.5 °C 1011.5 hPa South 4.7 km/h 17.7 km/h 82% 0.0 mm 0 W/m2
20:43 10.4 °C 7.5 °C 1011.2 hPa NW 6.4 km/h 6.4 km/h 82% 0.0 mm 0 W/m2
20:48 10.4 °C 7.5 °C 1011.2 hPa NE 3.2 km/h 4.8 km/h 82% 0.0 mm 0 W/m2
20:53 10.4 °C 7.5 °C 1010.8 hPa ENE 1.4 km/h 11.3 km/h 82% 0.0 mm 0 W/m2
20:58 10.3 °C 7.4 °C 1010.8 hPa WSW 1.4 km/h 14.5 km/h 82% 0.0 mm 0 W/m2
21:03 10.3 °C 7.5 °C 1010.8 hPa NNE 1.4 km/h 4.8 km/h 83% 0.0 mm 0 W/m2
21:08 10.3 °C 7.5 °C 1010.8 hPa West 6.4 km/h 16.1 km/h 83% 0.0 mm 0 W/m2
21:13 10.3 °C 7.5 °C 1010.8 hPa NNW 6.4 km/h 22.5 km/h 83% 0.0 mm 0 W/m2
21:18 10.3 °C 7.4 °C 1010.8 hPa WNW 11.1 km/h 11.3 km/h 82% 0.0 mm 0 W/m2
21:23 10.3 °C 7.4 °C 1010.8 hPa NW 6.4 km/h 8 km/h 82% 0.0 mm 0 W/m2
21:28 10.4 °C 7.6 °C 1010.8 hPa NW 4.7 km/h 20.9 km/h 83% 0.0 mm 0 W/m2
21:33 10.3 °C 7.5 °C 1010.8 hPa NNW 3.2 km/h 12.9 km/h 83% 0.0 mm 0 W/m2
21:38 10.3 °C 7.5 °C 1010.8 hPa North 6.4 km/h 11.3 km/h 83% 0.0 mm 0 W/m2
21:43 10.3 °C 7.5 °C 1010.8 hPa NNW 1.4 km/h 11.3 km/h 83% 0.0 mm 0 W/m2
21:49 10.3 °C 7.5 °C 1010.8 hPa NW 7.9 km/h 12.9 km/h 83% 0.0 mm 0 W/m2
21:54 10.3 °C 7.5 °C 1010.5 hPa WSW 4.7 km/h 12.9 km/h 83% 0.0 mm 0 W/m2
21:59 10.3 °C 7.5 °C 1010.8 hPa WNW 7.9 km/h 14.5 km/h 83% 0.0 mm 0 W/m2
22:04 10.3 °C 7.5 °C 1010.5 hPa West 6.4 km/h 9.7 km/h 83% 0.0 mm 0 W/m2
22:09 10.3 °C 7.5 °C 1010.5 hPa WNW 4.7 km/h 14.5 km/h 83% 0.0 mm 0 W/m2
22:14 10.3 °C 7.5 °C 1010.5 hPa West 6.4 km/h 16.1 km/h 83% 0.0 mm 0 W/m2
22:19 10.3 °C 7.5 °C 1010.5 hPa West 13 km/h 12.9 km/h 83% 0.0 mm 0 W/m2
22:24 10.3 °C 7.5 °C 1010.5 hPa NW 3.2 km/h 12.9 km/h 83% 0.0 mm 0 W/m2
22:29 10.3 °C 7.5 °C 1010.2 hPa NW 6.4 km/h 14.5 km/h 83% 0.0 mm 0 W/m2
22:34 10.3 °C 7.5 °C 1010.2 hPa SW 6.4 km/h 25.7 km/h 83% 0.0 mm 0 W/m2
22:39 10.3 °C 7.5 °C 1010.2 hPa NW 11.1 km/h 14.5 km/h 83% 0.0 mm 0 W/m2
22:44 10.3 °C 7.5 °C 1010.2 hPa WSW 16.3 km/h 19.3 km/h 83% 0.0 mm 0 W/m2
22:49 10.3 °C 7.5 °C 1010.2 hPa WSW 1.4 km/h 9.7 km/h 83% 0.0 mm 0 W/m2
22:54 10.3 °C 7.5 °C 1009.8 hPa WNW 9.7 km/h 16.1 km/h 83% 0.0 mm 0 W/m2
23:00 10.3 °C 7.5 °C 1009.8 hPa SW 3.2 km/h 20.9 km/h 83% 0.0 mm 0 W/m2
23:05 10.2 °C 7.4 °C 1009.8 hPa WSW 6.4 km/h 16.1 km/h 83% 0.0 mm 0 W/m2
23:10 10.2 °C 7.4 °C 1010.2 hPa WSW 13 km/h 35.4 km/h 83% 0.0 mm 0 W/m2
23:15 10.1 °C 7.5 °C 1009.8 hPa NNW 4.7 km/h 20.9 km/h 84% 0.0 mm 0 W/m2
23:20 10.1 °C 7.5 °C 1009.8 hPa NW 4.7 km/h 11.3 km/h 84% 0.0 mm 0 W/m2
23:25 9.9 °C 7.5 °C 1009.8 hPa WNW 7.9 km/h 19.3 km/h 85% 0.0 mm 0 W/m2
23:30 9.8 °C 7.4 °C 1009.8 hPa West 16.3 km/h 24.1 km/h 85% 0.0 mm 0 W/m2
23:35 9.8 °C 7.6 °C 1009.5 hPa WSW 6.4 km/h 19.3 km/h 86% 0.0 mm 0 W/m2
23:40 9.7 °C 7.5 °C 1009.5 hPa NNW 4.7 km/h 12.9 km/h 86% 0.0 mm 0 W/m2
23:45 9.7 °C 7.5 °C 1009.5 hPa West 6.4 km/h 24.1 km/h 86% 0.0 mm 0 W/m2
23:50 9.6 °C 7.5 °C 1009.5 hPa NNW 6.4 km/h 11.3 km/h 87% 0.0 mm 0 W/m2
23:55 9.5 °C 7.4 °C 1009.5 hPa Calm   24.1 km/h 87% 0.0 mm 0 W/m2
Juneau County Weather
Compliments of Weather Underground - 4 mb